Time,TemperatureF,DewpointF,PressureIn,WindDirection,WindDirectionDegrees,WindSpeedMPH,WindSpeedGustMPH,Humidity,HourlyPrecipIn,Conditions,Clouds,dailyrainin,SoftwareType,DateUTC
2014-09-02 00:24:00,74.0,68.0,-100.00,SSW,200,2.0,7.0,81,0.00,,,-99.99,,2014-09-02 04:24:00,
2014-09-02 00:53:00,74.0,68.0,-100.00,SW,220,6.0,11.0,81,0.00,,,-99.99,,2014-09-02 04:53:00,
2014-09-02 01:23:00,74.0,68.0,-100.00,SW,225,7.0,10.0,81,0.00,,,-99.99,,2014-09-02 05:23:00,
2014-09-02 01:52:00,74.0,68.0,-100.00,SSW,195,4.0,11.0,81,0.00,,,-99.99,,2014-09-02 05:52:00,
2014-09-02 02:22:00,74.0,68.0,-100.00,SW,220,5.0,12.0,82,0.00,,,-99.99,,2014-09-02 06:22:00,
2014-09-02 02:52:00,74.0,68.0,-100.00,SSW,195,7.0,13.0,82,0.00,,,-99.99,,2014-09-02 06:52:00,
2014-09-02 03:22:00,73.0,68.0,-100.00,SW,230,9.0,12.0,84,0.00,,,-99.99,,2014-09-02 07:22:00,
2014-09-02 03:42:00,73.0,68.0,-100.00,SSW,210,4.0,13.0,84,0.00,,,-99.99,,2014-09-02 07:42:00,
2014-09-02 03:52:00,73.0,68.0,-100.00,SSW,210,4.0,13.0,84,0.00,,,-99.99,,2014-09-02 07:52:00,
2014-09-02 04:03:00,73.0,68.0,-100.00,SSW,210,4.0,13.0,84,0.00,,,-99.99,,2014-09-02 08:03:00,
2014-09-02 04:12:00,73.0,68.0,-100.00,SSW,210,4.0,13.0,84,0.00,,,-99.99,,2014-09-02 08:12:00,
2014-09-02 04:52:00,72.0,67.0,-100.00,WSW,240,6.0,8.0,84,0.00,,,-99.99,,2014-09-02 08:52:00,
2014-09-02 05:02:00,72.0,67.0,-100.00,WSW,240,6.0,8.0,84,0.00,,,-99.99,,2014-09-02 09:02:00,
2014-09-02 05:12:00,72.0,67.0,-100.00,WSW,240,6.0,8.0,84,0.00,,,-99.99,,2014-09-02 09:12:00,
2014-09-02 06:24:00,70.0,66.0,-100.00,SW,225,3.0,6.0,86,0.00,,,-99.99,,2014-09-02 10:24:00,
2014-09-02 06:53:00,70.0,66.0,-100.00,SW,230,5.0,9.0,86,0.00,,,-99.99,,2014-09-02 10:53:00,
2014-09-02 07:23:00,70.0,66.0,-100.00,South,190,3.0,8.0,86,0.00,,,-99.99,,2014-09-02 11:23:00,
2014-09-02 07:52:00,71.0,66.0,-100.00,SW,220,4.0,9.0,86,0.00,,,-99.99,,2014-09-02 11:52:00,
2014-09-02 08:22:00,71.0,66.0,-100.00,SSW,205,7.0,12.0,84,0.00,,,-99.99,,2014-09-02 12:22:00,
2014-09-02 08:52:00,71.0,66.0,-100.00,SW,215,6.0,10.0,83,0.00,,,-99.99,,2014-09-02 12:52:00,
2014-09-02 09:22:00,72.0,67.0,-100.00,SW,230,6.0,12.0,82,0.00,,,-99.99,,2014-09-02 13:22:00,
2014-09-02 10:23:00,72.0,67.0,-100.00,SW,230,8.0,11.0,83,0.00,,,-99.99,,2014-09-02 14:23:00,
2014-09-02 10:52:00,72.0,66.0,-100.00,SW,220,4.0,9.0,82,0.00,,,-99.99,,2014-09-02 14:52:00,
2014-09-02 13:23:00,69.0,64.0,-100.00,West,265,3.0,6.0,85,1.69,,,-99.99,,2014-09-02 17:23:00,